Current Conditions for Foresthill, CA. Clear skies, Dry   
Visibility: 10 miles
Foresthill Advisory text: No Warning

  Summary / Temperature 

Current Temperature
61.9°F
16.6°C
(24/hr Ago)
58.9°F
(Apparent temp)
59.2°F
Comfortable
Wind Chill Graphs
61.3°F 

63.2°F/ 17.3°C
 --- Virtual Temp: 64.4°F ---

 Temp Rate:

 24/hr Difference:

 Avg Running Temp:

 Todays High:

 Todays Low:

 Y-days High:

 Y-days Low:

 Todays WChill:

 Y-days WChill:

 Evapotranspiration:

-1.4°F/hr 

+3°F

62.7°F

73.7°F 2:40pm

56.4°F 4:35am

72.6°F 2:26pm

52.3°F 6:18am

52.4°F 6:25am

46.3°F 6:19am

0.151 in

115' Above Ground

 Temperature:

 6'AGL VRS 115'AGL:

 Avg Running Temp:

 Humidity:

 Todays High:

 Todays Low:

 Y-days High:

 Y-days Low:

64.0°F 

+2.1°F

64.7°F

50% 

74.0°F 2:08pm

58.0°F 3:03am

73.0°F 4:36pm

53.0°F 6:16am

Temp & Humidity Graphs

  Wind 

Wind Speed

 2.0 mph

Gusting to

 13.0 mph

Wind from ESE

113°  ESE

Light air

 Avg speed:

 Wind Run:

 Peak Gust:

  4.0 mph 

56.0 miles

  19.0 mph 6:22am

  Almanac  

Moon age: 25 days,11 hours,27 minutes,18%

Waning Crescent
10%
Illuminated
26 days in cycle

 Moonrise:

 Moonset:

 Sunrise:

 Sunset:

 Solar Noon:

4:10am

4:31pm

6:00am

7:56pm

1:00pm

2min 7s more daylight tomorrow 

  Solar Radiation 

(Current Solar)
  No Sun Light
(Todays High)
 1056 W/m2@2:18pm

Rain

 Rain Today:

 Rain Rate (/hr):

 Rain last hour:

 Rain Yesterday:

 This Month:

 Season Total:

1 Day Since Last Rain Day

0.00 in

0.000 in

0.00 in

0.00 in

0.02 in

48.92 in

Updated Time

Updated: 5/3/16  11:01pm

(Updated  sec ago)

Humidity & Barometer

 Humidity:

 Wetbulb:

 Dew Point:

 Barometer:

60% 

54.4°F 

47.9°F 

29.911 inHg 

 Baro Trend:  Steady 
Northern Calif
Preparedness
Fire 
Level 

    UV Index  

(Current UV)
0.0  None
(Todays High) @ 1:37pm
8.5   Very High

Weather Underground 5 day Forecast

Wed Thu Fri Sat Sun
 b?/b - T-storms   b?/b - T-storms   b?/b - T-storms  Chance Rain Chance Rain
 ? - T-storms   ? - T-storms   ? - T-storms  Chance Rain Chance Rain
73° 66° 65° 66° 70°
49° 50° 51° 51° 52°

Foresthill Probe 2 Stats  
Foresthill Probe 2: is located on Thomas Street
at 3000 feet. The main Foresthill Weather site
is located on Melody ln at the 2860 foot elevation

Calm
60.7°F
15.9°C
Temp Rate:
-0.7°F
Calm
Gusting to
2.0 mph
(Humidity)
59%
Wind from SE
140°  SE
Updated: 03/05/16 - 22:59:14
 Todays High: 75.0°F 14:39
 Todays Low: 53.2°F 05:30
 Rain Today: 0.00 in
 Season Total: 49.70 in

Foresthill Wx: Monthly,Yearly, Highs and Lows 

Foresthill  
This Weather Data is coming from the main Foresthill
Weather site located on Melody ln at the 2860 foot
elevation
Not Foresthill Probe 2
Weather Data
Month
  High
Month
  Low
Year
High
Year
Low
Temp 73.7°F
5/3/16
52.3°F
5/2/16
82.3°F
4/6/16
28.4°F
2/1/16
Humidity 68%
5/2/16
31%
5/2/16
100%
1/6/16
22%
2/29/16
Heat Index 73.6°F
5/3/16
54.6°F
5/2/16
80.7°F
4/6/16
33.3°F
2/1/16
Wind Chill 73.7°F
5/3/16
46.3°F
5/2/16
82.3°F
4/6/16
15.8°F
2/1/16
Wind Gust 31 mph
5/1/16
0 mph
5/1/16
48 mph
2/17/16
0 mph
1/1/16
Barometer 30.07 in
5/2/16
29.85 in
5/1/16
30.56 in
2/3/16
29.44 in
2/17/16
ET 0.20 in
5/2/16
0.00 in
5/1/16
0.23 in
4/6/16
0.00 in
1/1/16
Dew Point 54.1°F
5/3/16
34.6°F
5/1/16
54.9°F
3/4/16
19.9°F
1/1/16
Infrared Satellite Regional Radar Satellite Imagery Sacramento,CA.  (click to enlarge)
NWS Weather Forecast - Outlook: Tonight and Wednesday
Tonight

Tonight: A 20 percent chance of showers after 11pm.  Mostly cloudy, with a low around 55. Calm wind becoming east around 6 mph after midnight.  New precipitation amounts of less than a tenth of an inch possible.
Slight Chance
Showers

Lo 55 °F
NWS forecast: A 20 percent chance of showers after 11pm. Mostly cloudy, with a low around 55. Calm wind becoming east around 6 mph after midnight. New precipitation amounts of less than a tenth of an inch possible.
Wednesday

Wednesday: A chance of showers, with thunderstorms also possible after 11am.  Mostly cloudy, with a high near 69. Light and variable wind becoming southwest 5 to 7 mph in the afternoon.  Chance of precipitation is 50%. New rainfall amounts of less than a tenth of an inch, except higher amounts possible in thunderstorms.
Chance
T-storms

Hi 69 °F
NWS forecast: A chance of showers, with thunderstorms also possible after 11am. Mostly cloudy, with a high near 69. Light and variable wind becoming southwest 5 to 7 mph in the afternoon. Chance of precipitation is 50%. New rainfall amounts of less than a tenth of an inch, except higher amounts possible in thunderstorms.
NWS Weather Forecast - Summary
Updated: Tuesday, May 3, 2016 - 7:19pm (PDT)
YR.NO 10 Day Weather forecast
Last update: 05/03/2016 @ 12:35
Next update: 05/04/2016 @ 01:00
Provided by: 22
      Temperature Precipitation Pressure Wind  
Today
05/03/2016
23:00 05:00 54°F   29.92 inHg Light breeze from east-northeast 4 mph
    (Click to enlarge)
meteogram

    Forecast for next 9 days

      Temperature Precip Pressure Wind  
Wednesday
05/04/2016
05:00 11:00 50°F   29.82 inHg Light breeze from east-northeast 5 mph
  11:00 17:00 72°F   29.79 inHg Light breeze from south-southwest 6 mph
  17:00 23:00 64°F 0.02 in 29.78 inHg Gentle breeze from south-southwest 9 mph
  23:00 05:00 54°F 0.18 in 29.83 inHg Light air from southeast 2 mph
      Temperature Precip Pressure Wind  
Thursday
05/05/2016
05:00 11:00 46°F 0.04 in 29.86 inHg Light breeze from south-southeast 4 mph
  11:00 17:00 54°F   29.87 inHg Light air from southwest 3 mph
  17:00 23:00 57°F 0.03 in 29.79 inHg Light air from west-northwest 1 mph
  23:00 05:00 50°F 0.04 in 29.81 inHg Light air from northeast 1 mph
      Temperature Precip Pressure Wind  
Friday
05/06/2016
05:00 11:00 46°F 0.07 in 29.77 inHg Light air from east-southeast 2 mph
  11:00 17:00 55°F 0.02 in 29.80 inHg Gentle breeze from south-southwest 8 mph
  17:00 23:00 52°F 0.12 in 29.83 inHg Light breeze from south 4 mph
  23:00 05:00 48°F 0.08 in 29.86 inHg Light air from east-northeast 2 mph
      Temperature Precip Pressure Wind  
Saturday
05/07/2016
05:00 11:00 48°F 0.09 in 29.85 inHg Calm from southwest 0 mph
  11:00 17:00 50°F   29.91 inHg Light air from west-northwest 1 mph
  17:00 23:00 54°F 0.15 in 29.86 inHg Light air from west 2 mph
  23:00 05:00 48°F 0.04 in 29.88 inHg Light air from east 2 mph
      Temperature Precip Pressure Wind  
Sunday
05/08/2016
05:00 11:00 48°F   29.86 inHg Light air from southeast 1 mph
  11:00 17:00 54°F   29.91 inHg Light breeze from west-southwest 5 mph
  17:00 23:00 55°F   29.92 inHg Light breeze from south-southwest 4 mph
  23:00 05:00 50°F   29.97 inHg Light air from east-northeast 3 mph
      Temperature Precip Pressure Wind  
Monday
05/09/2016
05:00 11:00 46°F   29.96 inHg Light air from east 1 mph
  11:00 17:00 63°F   29.96 inHg Light breeze from west-northwest 4 mph
  17:00 23:00 66°F   29.92 inHg Light breeze from west-southwest 6 mph
  23:00 05:00 52°F   29.96 inHg Light air from east-northeast 2 mph
      Temperature Precip Pressure Wind  
Tuesday
05/10/2016
05:00 11:00 46°F   29.97 inHg Light breeze from east-northeast 5 mph
  11:00 17:00 70°F   29.98 inHg Light breeze from west-southwest 5 mph
  17:00 23:00 72°F   29.95 inHg Light air from west-southwest 3 mph
  23:00 05:00 57°F   30.00 inHg Light air from east-northeast 1 mph
      Temperature Precip Pressure Wind  
Wednesday
05/11/2016
05:00 11:00 48°F   29.98 inHg Light breeze from east-northeast 5 mph
  11:00 17:00 73°F   29.99 inHg Light breeze from west-southwest 4 mph
  17:00 23:00 73°F   29.95 inHg Light breeze from southwest 5 mph
  23:00 05:00 55°F   29.99 inHg Light air from east-northeast 3 mph
      Temperature Precip Pressure Wind  
Thursday
05/12/2016
05:00 11:00 48°F   29.95 inHg Light breeze from east-northeast 5 mph
  11:00 17:00 73°F   29.94 inHg Light breeze from southwest 5 mph
  17:00 23:00 73°F   29.87 inHg Light breeze from southwest 7 mph
  23:00 05:00 57°F   29.88 inHg Light breeze from southeast 4 mph

Weather History For Wednesday, May 4, 2016


On this Day - In Weather History ...
Data courtesy of weatherforyou.com
powered by Cumulus v1.9.3 (1059)
Ambient Weather VWS v14.00
Top Contact Website Map Copyright © 2007 - 2016 Foresthillweather.com Never base important decisions on this or any weather information obtained from the Internet